Weather History for Opa Locka, FL

Change the Weather History Date:

Saturday, December 29, 2012

  Actual Average Record
Temperature  
Mean Temperature 75 °F -  
Max Temperature 82 °F 76 °F 85 °F (1982)
Min Temperature 64 °F 58 °F 37 °F (1961)
Cooling Degree Days 10    
Growing Degree Days 25 (Base 50)    
Moisture  
Dew Point 70 °F    
Average Humidity 77    
Maximum Humidity 91    
Minimum Humidity 63    
Precipitation  
Precipitation 0.00 in - - ()
Sea Level Pressure  
Sea Level Pressure 30.01 in    
Wind  
Wind Speed 10 mph (SW)    
Max Wind Speed 17 mph    
Max Gust Speed 23 mph    
Visibility 10 miles    
Events      
Averages and records for this station are not official NWS values.
T = Trace of Precipitation, MM = Missing Value Source: NWS Daily Summary

Daily Weather History Graph

Daily Weather History Graph

Search for Another Location

Airport:

Trip Planner

Search our weather history database for the weather conditions in past years. The results will help you decide how hot, cold, wet, or windy it might be!

Date:

Astronomy

Dec. 29, 2012 Rise Set
Actual Time 7:07 AM EST 5:39 PM EST
Civil Twilight 6:42 AM EST 6:04 PM EST
Nautical Twilight 6:13 AM EST 6:33 PM EST
Astronomical Twilight 5:45 AM EST 7:01 PM EST
Moon 7:01 PM EST (12/29) 7:48 AM EST (12/29)
Length of Visible Light 11h 22m
Length of Day
10h 32m
Full, 98% of the Moon is Illuminated
Dec 29
Full
Jan 4
Last Quarter
Jan 11
New
Jan 18
First Quarter
Jan 26
Full

Hourly Weather History & Observations

Time (EST) Temp. Heat Index Dew Point Humidity Pressure Visibility Wind Dir Wind Speed Gust Speed Precip Events Conditions
12:53 AM 72.0 °F - 69.1 °F 91% 29.99 in 10.0 mi South 8.1 mph - N/A   Clear
1:53 AM - - - N/A% 29.99 in 10.0 mi SSE 8.1 mph - N/A   Partly Cloudy
2:53 AM - - - N/A% 29.96 in 10.0 mi SSE 12.7 mph - N/A   Partly Cloudy
3:53 AM 73.0 °F - 70.0 °F 90% 29.97 in 10.0 mi South 6.9 mph - N/A   Mostly Cloudy
4:15 AM 73.4 °F - 69.8 °F 88% 29.95 in 10.0 mi South 8.1 mph - N/A   Scattered Clouds
4:53 AM 73.0 °F - 70.0 °F 90% 29.97 in 10.0 mi South 6.9 mph - N/A   Clear
5:53 AM - - - N/A% 30.00 in 10.0 mi SSW 5.8 mph - N/A   Mostly Cloudy
6:31 AM - - - N/A% 30.00 in 10.0 mi South 9.2 mph - N/A   Partly Cloudy
6:53 AM - - - N/A% 30.02 in 10.0 mi South 9.2 mph - N/A   Clear
7:53 AM - - - N/A% 30.03 in 10.0 mi South 5.8 mph - N/A   Clear
8:53 AM 75.0 °F - 72.0 °F 90% 30.05 in 10.0 mi SW 8.1 mph - N/A   Clear
9:31 AM 78.8 °F - 71.6 °F 78% 30.05 in 10.0 mi SSW 11.5 mph - N/A   Mostly Cloudy
9:45 AM 78.8 °F - 71.6 °F 78% 30.05 in 10.0 mi SSW 11.5 mph - N/A   Mostly Cloudy
9:53 AM 79.0 °F - 72.0 °F 79% 30.06 in 10.0 mi SSW 13.8 mph - N/A   Mostly Cloudy
10:25 AM 80.6 °F 84.6 °F 71.6 °F 74% 30.05 in 10.0 mi SSW 11.5 mph 20.7 mph N/A   Mostly Cloudy
10:53 AM 80.1 °F 83.8 °F 72.0 °F 76% 30.05 in 10.0 mi SW 12.7 mph 20.7 mph N/A   Mostly Cloudy
11:18 AM 80.6 °F 84.6 °F 71.6 °F 74% 30.02 in 10.0 mi SW 12.7 mph 20.7 mph N/A   Scattered Clouds
11:53 AM 82.9 °F 86.5 °F 69.1 °F 63% 30.02 in 10.0 mi WSW 13.8 mph - N/A   Scattered Clouds
12:34 PM 82.4 °F 86.3 °F 69.8 °F 66% 30.00 in 10.0 mi WSW 15.0 mph - N/A   Mostly Cloudy
12:46 PM 82.4 °F 87.2 °F 71.6 °F 70% 30.00 in 10.0 mi WSW 12.7 mph - N/A   Mostly Cloudy
12:53 PM 82.0 °F 85.9 °F 70.0 °F 67% 30.00 in 10.0 mi WSW 16.1 mph 21.9 mph N/A   Mostly Cloudy
1:13 PM 82.4 °F 86.3 °F 69.8 °F 66% 29.98 in 10.0 mi WSW 10.4 mph 20.7 mph N/A   Mostly Cloudy
1:20 PM 82.4 °F 87.2 °F 71.6 °F 70% 29.98 in 10.0 mi WSW 16.1 mph 20.7 mph N/A   Mostly Cloudy
1:53 PM 82.0 °F 85.9 °F 70.0 °F 67% 29.98 in 10.0 mi WSW 17.3 mph - N/A   Scattered Clouds
2:53 PM 81.0 °F 84.1 °F 69.1 °F 67% 29.97 in 10.0 mi WSW 16.1 mph - N/A   Partly Cloudy
3:53 PM 80.1 °F 83.2 °F 70.0 °F 71% 29.96 in 10.0 mi WSW 11.5 mph 19.6 mph N/A   Partly Cloudy
4:53 PM 80.1 °F 82.3 °F 66.9 °F 64% 29.96 in 10.0 mi WSW 11.5 mph - N/A   Clear
5:53 PM 78.8 °F - 69.8 °F 74% 29.98 in 10.0 mi WSW 10.4 mph - N/A   Mostly Cloudy
6:38 PM 77.0 °F - 69.8 °F 78% 30.00 in 10.0 mi WSW 11.5 mph - N/A   Mostly Cloudy
6:53 PM 77.0 °F - 70.0 °F 79% 30.01 in 10.0 mi WSW 11.5 mph - N/A   Mostly Cloudy
7:00 PM 75.2 °F - 69.8 °F 83% 30.00 in 10.0 mi WSW 10.4 mph - N/A   Scattered Clouds
7:53 PM 75.0 °F - 70.0 °F 84% 30.03 in 10.0 mi WSW 11.5 mph 18.4 mph N/A   Clear
8:53 PM 73.9 °F - 70.0 °F 87% 30.05 in 10.0 mi West 9.2 mph - N/A   Partly Cloudy
9:53 PM 71.1 °F - 64.9 °F 81% 30.08 in 10.0 mi NW 13.8 mph - N/A   Partly Cloudy
10:53 PM 68.0 °F - - N/A% 30.11 in 10.0 mi NNW 15.0 mph 21.9 mph N/A   Unknown
11:53 PM 64.0 °F - - N/A% 30.12 in 10.0 mi NNW 16.1 mph 23.0 mph N/A   Unknown